[[{"header":{"parameterUnit":"m.s-1","parameterCategory":1,"la1":30.2991,"la2":30.254,"lo1":-89.0895,"lo2":-89.0444,"dy":0.0017,"dx":0.0017,"nx":28,"ny":28,"refTime":"2024-05-14T09:00:00:Z","depth":0,"parameterNumber":2,"parameterNumberName":"U-component_of_WINDS"},"data":[0,0,0,0,0,0,0,0,0,0,0,0,0,0,0,0,0,0,0,0,0,0,0,0,0,0,0,0,0,0,0,0,0,0,0,0,0,0,0,0,0,0,0,0,0,0,0,0,0,0,0,0,0,0,0,0,0,0,1.8184,1.8187,0,1.8457,1.846,1.8463,1.8526,1.8524,1.8523,1.8521,1.8812,1.8821,1.8831,0,0,0,0,0,0,0,0,0,0,0,0,0,1.7726,1.7734,1.8183,1.8187,1.819,1.8457,1.846,1.8464,1.8527,1.8524,1.8522,1.852,1.8809,1.882,1.8832,0,0,0,0,0,0,0,0,0,0,0,0,0,1.7955,1.7736,1.8183,1.8253,1.8262,1.8456,1.8461,1.8465,1.8527,1.8524,1.8521,1.8519,1.8805,1.8819,1.8833,1.8979,0,0,1.8877,1.8883,0,0,0,0,0,0,0,0,1.7942,1.7971,1.824,1.8249,1.8259,1.8454,1.8406,1.8638,1.8528,1.8427,1.8521,1.8517,1.8696,1.8719,1.8777,1.8993,1.9006,1.8878,1.8887,1.8893,1.8897,0,0,0,0,0,0,0,1.7926,1.796,1.8292,1.8243,1.8255,1.8275,1.8304,1.845,1.8575,1.8436,1.8441,1.8472,1.8701,1.8763,1.8785,1.901,1.8878,1.8891,1.8899,1.8905,1.9362,1.9365,0,0,0,0,0,0,1.7896,1.7946,1.8283,1.83,1.809,1.8285,1.8318,1.8395,1.8573,1.8597,1.8474,1.8474,1.874,1.8768,1.8795,1.8979,1.8893,1.8906,1.8915,1.9358,1.9362,1.9366,0,0,0,0,0,0,1.7886,1.7925,1.8272,1.8125,1.817,1.8296,1.8382,1.8402,1.8464,1.8602,1.8626,1.8514,1.8739,1.8775,1.8933,1.899,1.8913,1.8926,1.9354,1.9359,1.9364,1.9348,0,0,0,0,0,0,1.7872,1.7921,1.7976,1.8125,1.8178,1.8402,1.8385,1.8409,1.8487,1.8489,1.8646,1.8669,1.874,1.8911,1.8947,1.9009,1.8937,1.9349,1.9356,1.9363,1.9344,1.9352,1.9359,0,0,0,0,0,1.7856,1.7962,1.7978,1.8018,1.8248,1.8405,1.8436,1.8511,1.8491,1.8549,1.8638,1.8664,1.8977,1.8927,1.8968,1.9034,1.9346,1.9354,1.9362,1.9341,1.935,1.9359,0,0,0,0,0,0,1.782,1.7983,1.8003,1.816,1.8268,1.8415,1.849,1.8519,1.8638,1.8635,1.8728,1.8763,1.8915,1.8991,1.8931,1.9186,1.9162,1.9178,1.9131,1.9142,1.9149,1.9129,1.8949,0,0,0,0,0,1.783,1.794,1.8078,1.8204,1.8257,1.8364,1.8435,1.8484,1.8601,1.8648,1.8748,1.8864,1.8989,1.9069,1.9192,1.9354,1.9391,1.9421,1.9428,1.9434,1.9448,1.9542,1.9557,1.9392,1.9392,1.9392,0,0,1.7853,1.7955,1.802,1.8199,1.8289,1.8405,1.8402,1.8525,1.8613,1.8668,1.8822,1.89,1.9036,1.9196,1.9273,1.9264,1.9501,1.9444,1.9447,1.9459,1.9551,1.9567,1.958,1.9398,1.9397,1.9396,0,0,1.7953,1.8041,1.8155,1.8244,1.8378,1.8448,1.8475,1.8619,1.8672,1.8827,1.8871,1.8979,1.9191,1.9286,1.9362,1.9498,1.9528,1.9535,1.9575,1.9666,1.9679,1.9691,1.9741,1.9758,1.9548,1.9548,1.9548,0,1.7966,1.8138,1.8212,1.8332,1.8411,1.8462,1.8581,1.8664,1.8833,1.8888,1.8875,1.9142,1.9237,1.9422,1.9454,1.9514,1.9551,1.9519,1.967,1.9683,1.9695,1.9745,1.9763,1.9548,1.9548,1.9548,1.9548,0,1.8148,1.8267,1.8344,1.8501,1.8589,1.8708,1.8803,1.8883,1.8924,1.8996,1.9156,1.927,1.9417,1.9465,1.9507,1.9656,1.9647,1.9651,1.9629,1.971,1.9758,1.9777,1.9549,1.9549,1.9549,1.9549,0,0,1.8236,1.843,1.8457,1.853,1.8681,1.8776,1.8899,1.9039,1.9107,1.9221,1.9328,1.9506,1.951,1.9597,1.9651,1.9729,1.9832,1.9724,1.9729,1.9742,2.0006,2.0003,2.0024,1.9851,1.9855,1.9858,1.9995,0,1.8356,1.8572,1.8642,1.8824,1.8936,1.8986,1.9093,1.9199,1.927,1.9379,1.946,1.9585,1.958,1.9632,1.9712,1.9802,1.9886,1.9793,1.9956,1.9961,1.9922,2.0049,2.0047,2.0171,2.0014,2.0017,2.002,0,1.8526,1.8639,1.8831,1.8968,1.9018,1.9112,1.9247,1.9348,1.9471,1.9518,1.9613,1.966,1.9793,1.9761,1.9948,1.9883,1.9954,2.0008,2.0015,2.0035,1.9997,2.0075,2.0212,2.0231,2.005,2.0047,2.0045,0,1.8573,1.8774,1.8915,1.8975,1.9137,1.9203,1.9275,1.9394,1.9473,1.9592,1.9645,1.9779,1.9853,1.9957,2.004,2.0009,2.0221,2.0195,2.0267,2.0265,2.0311,2.0308,2.0464,2.0353,2.0352,2.0352,2.0351,0,1.8702,1.8818,1.8938,1.9025,1.9157,1.9237,1.9367,1.9442,1.9547,1.9653,1.9705,1.9803,1.9906,2.0019,2.0085,2.0231,2.0264,2.0308,2.0325,2.0305,2.03,2.0355,2.0349,2.0357,2.0356,2.0355,2.0354,0,1.8777,1.8862,1.9019,1.9159,1.9197,1.9289,1.9411,1.9499,1.9571,1.9704,1.974,1.9855,1.999,2.0083,2.0258,2.0302,2.0462,2.0476,2.0419,2.0428,2.0495,2.0488,2.0694,2.0726,2.059,2.0591,2.0592,0,1.8855,1.8945,1.9093,1.9166,1.9236,1.9352,1.9433,1.9516,1.9599,1.9744,1.9816,1.9954,2.0069,2.0284,2.0386,2.052,2.054,2.0602,2.0561,2.0538,2.0544,2.0538,2.0549,2.061,2.0611,2.0612,2.0612,0,1.8985,1.9021,1.9134,1.9261,1.9355,1.946,1.9567,1.9624,1.9726,1.9816,1.9953,2.0042,2.0219,2.0357,2.0501,2.0579,2.0615,2.0624,2.0648,2.063,2.0595,2.0617,2.0439,2.062,2.0619,2.0619,2.0618,2.0618,1.9066,1.9148,1.9265,1.9389,1.9477,1.9574,1.9664,1.9746,1.9861,2.0008,2.0051,2.0194,2.0317,2.0513,2.0593,2.0709,2.0704,2.0738,2.0748,2.0756,2.0756,2.0573,2.0735,2.0735,2.0735,2.0735,2.0735,0,1.92,1.9277,1.939,1.9535,1.9633,1.9652,1.9771,1.9853,1.9977,2.0086,2.0197,2.0355,2.0489,2.06,2.0739,2.0811,2.0831,2.0845,2.0842,2.086,2.0752,2.0718,2.0827,2.0827,2.0826,2.0826,2.0826,2.0826,1.9281,1.9423,1.9473,1.9659,1.9737,1.9875,1.9941,2.0033,2.012,2.0293,2.0403,2.0473,2.0584,2.0731,2.0856,2.0886,2.0936,2.0947,2.0981,2.0878,2.0868,2.0858,2.0827,2.0956,2.0956,2.108,2.1081,2.1082]},{"header":{"parameterUnit":"m.s-1","parameterCategory":1,"la1":30.2991,"la2":30.254,"lo1":-89.0895,"lo2":-89.0444,"dy":0.0017,"dx":0.0017,"nx":28,"ny":28,"refTime":"2024-05-14T09:00:00:Z","depth":0,"parameterNumber":3,"parameterNumberName":"V-component_of_WINDS"},"data":[0,0,0,0,0,0,0,0,0,0,0,0,0,0,0,0,0,0,0,0,0,0,0,0,0,0,0,0,0,0,0,0,0,0,0,0,0,0,0,0,0,0,0,0,0,0,0,0,0,0,0,0,0,0,0,0,0,0,3.2806,3.2809,0,3.3132,3.3136,3.314,3.3227,3.3225,3.3223,3.3221,3.3555,3.3565,3.3576,0,0,0,0,0,0,0,0,0,0,0,0,0,3.2257,3.2266,3.2805,3.2809,3.2814,3.3132,3.3136,3.3141,3.3227,3.3225,3.3223,3.3221,3.3551,3.3564,3.3577,0,0,0,0,0,0,0,0,0,0,0,0,0,3.253,3.2269,3.2805,3.2895,3.2907,3.3131,3.3136,3.3142,3.3228,3.3225,3.3222,3.3219,3.3547,3.3563,3.3579,3.3736,0,0,3.3628,3.3635,0,0,0,0,0,0,0,0,3.2515,3.255,3.2878,3.2889,3.2903,3.3136,3.3065,3.3341,3.3229,3.3106,3.3221,3.3218,3.3418,3.3444,3.3512,3.3752,3.3766,3.3629,3.3639,3.3646,3.365,0,0,0,0,0,0,0,3.2496,3.2537,3.2935,3.2882,3.2898,3.292,3.2955,3.3118,3.3274,3.3116,3.3124,3.3161,3.3424,3.3496,3.352,3.3771,3.3629,3.3643,3.3653,3.3659,3.4158,3.4162,0,0,0,0,0,0,3.2461,3.252,3.2924,3.2945,3.2697,3.2932,3.2972,3.3064,3.3273,3.3302,3.3163,3.3164,3.347,3.3502,3.3533,3.3733,3.3646,3.3661,3.367,3.4154,3.4159,3.4163,0,0,0,0,0,0,3.2449,3.2496,3.2911,3.2735,3.2789,3.2944,3.3047,3.3072,3.3145,3.3308,3.3336,3.3208,3.3469,3.351,3.3685,3.3745,3.3668,3.3682,3.415,3.4156,3.4161,3.4132,0,0,0,0,0,0,3.2433,3.2491,3.2553,3.2735,3.2798,3.3059,3.3051,3.308,3.3172,3.3176,3.3358,3.3385,3.347,3.3661,3.3701,3.3766,3.3695,3.4146,3.4153,3.4159,3.4129,3.4136,3.4142,0,0,0,0,0,3.2413,3.2531,3.2555,3.2604,3.2878,3.3062,3.3098,3.3193,3.3176,3.324,3.3345,3.338,3.3732,3.3678,3.3724,3.3795,3.4142,3.4151,3.4159,3.4125,3.4135,3.4142,0,0,0,0,0,0,3.2351,3.2556,3.2586,3.2766,3.2896,3.3076,3.3159,3.32,3.3336,3.3334,3.3447,3.3487,3.3655,3.3742,3.3679,3.3959,3.3937,3.3955,3.3896,3.3906,3.3913,3.389,3.3708,0,0,0,0,0,3.2358,3.249,3.2662,3.2805,3.2869,3.3002,3.3086,3.3148,3.3287,3.3342,3.346,3.3593,3.3734,3.3825,3.3963,3.4141,3.4183,3.4212,3.4219,3.4224,3.4239,3.4341,3.4357,3.419,3.419,3.4189,0,0,3.2374,3.2503,3.2579,3.2796,3.2904,3.3039,3.3048,3.3189,3.3291,3.3364,3.3538,3.3628,3.3784,3.3962,3.4046,3.404,3.4294,3.4234,3.4237,3.425,3.4351,3.4367,3.4381,3.4195,3.4194,3.4193,0,0,3.2474,3.2583,3.2716,3.2824,3.2987,3.3075,3.3107,3.3282,3.3345,3.3521,3.3579,3.3701,3.3941,3.4051,3.4137,3.4279,3.4317,3.4321,3.4358,3.4456,3.447,3.4482,3.4535,3.4552,3.4334,3.4334,3.4334,0,3.2474,3.2679,3.2778,3.2918,3.3012,3.3085,3.322,3.332,3.352,3.3583,3.3573,3.3877,3.3987,3.4192,3.4227,3.4294,3.4335,3.4302,3.446,3.4473,3.4486,3.4538,3.4557,3.4334,3.4334,3.4334,3.4334,0,3.2672,3.2814,3.2901,3.3093,3.3197,3.3333,3.3454,3.3547,3.36,3.3689,3.3868,3.4003,3.4171,3.4223,3.4276,3.4437,3.4429,3.4437,3.4418,3.45,3.455,3.4571,3.4333,3.4333,3.4334,3.4334,0,0,3.2742,3.2988,3.3019,3.3108,3.3294,3.3405,3.3545,3.371,3.3789,3.3924,3.4046,3.4247,3.4257,3.4356,3.4422,3.4508,3.4615,3.4507,3.4513,3.4524,3.4803,3.4796,3.4818,3.464,3.4644,3.4647,3.479,0,3.2867,3.3121,3.3214,3.3423,3.3556,3.3626,3.3749,3.3876,3.3963,3.4089,3.4185,3.4327,3.4328,3.4389,3.4477,3.4583,3.4672,3.4573,3.4755,3.476,3.4716,3.4844,3.4838,3.4966,3.481,3.4814,3.4816,0,3.3046,3.3185,3.3406,3.3578,3.3637,3.3745,3.3905,3.4024,3.417,3.4228,3.4338,3.4399,3.4549,3.4519,3.4728,3.4658,3.4738,3.4801,3.4808,3.4831,3.4795,3.4872,3.501,3.503,3.4848,3.4845,3.4843,0,3.3078,3.332,3.3485,3.3558,3.3761,3.3836,3.3924,3.4068,3.4161,3.4301,3.4363,3.4517,3.4602,3.472,3.4821,3.4789,3.5021,3.4999,3.5075,3.5072,3.5122,3.5118,3.5277,3.5169,3.5169,3.5168,3.5168,0,3.3208,3.3342,3.3502,3.3603,3.3756,3.3862,3.4009,3.4102,3.4229,3.435,3.4419,3.4532,3.4657,3.4785,3.4864,3.5027,3.5064,3.5115,3.5135,3.5111,3.5105,3.5166,3.5161,3.5173,3.5172,3.5171,3.517,0,3.327,3.3383,3.3568,3.3745,3.3793,3.3897,3.4049,3.4151,3.4241,3.4394,3.4435,3.4577,3.4732,3.4844,3.5043,3.5096,3.5272,3.529,3.5223,3.5233,3.5303,3.5296,3.5509,3.5544,3.5409,3.5411,3.5411,0,3.3347,3.3452,3.3641,3.3728,3.3816,3.3954,3.4051,3.4159,3.4257,3.4432,3.4513,3.4672,3.4807,3.5051,3.5172,3.5325,3.5349,3.5413,3.5373,3.5345,3.5354,3.5347,3.5359,3.542,3.5421,3.5421,3.5422,0,3.3473,3.3524,3.366,3.3818,3.3931,3.4059,3.4189,3.4255,3.4387,3.4493,3.4653,3.4757,3.4961,3.512,3.5285,3.5376,3.5422,3.5433,3.546,3.5437,3.5395,3.5421,3.5242,3.5429,3.5428,3.5428,3.5427,3.5427,3.3547,3.3645,3.3794,3.3944,3.4053,3.4172,3.4278,3.4381,3.4517,3.4692,3.4748,3.4914,3.5059,3.5286,3.5379,3.551,3.5508,3.5545,3.5555,3.5563,3.5563,3.5371,3.554,3.554,3.554,3.554,3.554,0,3.3679,3.3778,3.3916,3.4095,3.4214,3.4246,3.4391,3.4489,3.4634,3.4766,3.4897,3.5081,3.5235,3.5368,3.5528,3.5609,3.5634,3.5647,3.5644,3.5665,3.5555,3.5518,3.5624,3.5624,3.5624,3.5624,3.5624,3.5624,3.3762,3.3929,3.3997,3.4219,3.4318,3.4482,3.4563,3.4674,3.478,3.4983,3.5112,3.5198,3.5331,3.5501,3.5645,3.568,3.5737,3.5746,3.5786,3.5682,3.5672,3.5662,3.5628,3.5756,3.5756,3.5885,3.5886,3.5887]}]]